Вернуться в каталог

COSMOS 1823 DEB

АктивенLEO
NORAD 18801·DEBRIS·🇷🇺 Russia

Запущен Feb 20, 1987 с Plesetsk Cosmodrome

Loading…

Ближайшие Пролёты (ближайшие 24 часа)

TLE

СвежийSource: Space-Track

Эпоха: Sep 14, 2026, 05:46 UTC

1 18801U 87020AM  26257.24087339  .00000313  00000-0  15096-2 0  9993
2 18801  73.1306 353.2135 0129989 181.6539 205.6848 12.75569818798956

Отслеживайте COSMOS 1823 DEB в реальном времени с AllMySat

Download on the App Store